This is the latest recevied weather packets stored in our database for station/object GOLDWX. If no packets are shown the sender has not sent any weather packets the latest 10 day(s).
| Time | Temp. | Humidity | Pressure | Rain* | Wind** | Luminosity | Snow |
|---|---|---|---|---|---|---|---|
| 1777970202 | 10° C | 61% | 1010.5 hPa | 0 mm | - | - | - |
| 1777969600 | 10° C | 62% | 1010.5 hPa | 0 mm | - | - | - |
| 1777969298 | 10° C | 62% | 1010.7 hPa | 0 mm | - | - | - |
| 1777968696 | 10° C | 62% | 1010.7 hPa | 0 mm | - | - | - |
| 1777968395 | 10° C | 62% | 1010.9 hPa | 0 mm | - | - | - |
| 1777967793 | 10° C | 62% | 1010.7 hPa | 0 mm | - | - | - |
| 1777967493 | 10° C | 61% | 1010.8 hPa | 0 mm | - | - | - |
| 1777966891 | 10.56° C | 60% | 1010.8 hPa | 0 mm | - | - | - |
| 1777966590 | 10° C | 61% | 1010.7 hPa | 0 mm | - | - | - |
| 1777965988 | 10° C | 61% | 1010.7 hPa | 0 mm | - | - | - |
| 1777965688 | 10° C | 61% | 1010.7 hPa | 0 mm | - | - | - |
| 1777965086 | 10° C | 61% | 1010.7 hPa | 0 mm | - | - | - |
| 1777965038 | 10.56° C | 61% | 1010.7 hPa | 0 mm | - | - | - |
| 1777964786 | 10.56° C | 61% | 1010.7 hPa | 0 mm | - | - | - |
| 1777964183 | 10.56° C | 59% | 1010.7 hPa | 0 mm | - | - | - |
| 1777963883 | 10.56° C | 60% | 1010.7 hPa | 0 mm | - | - | - |
| 1777963281 | 10.56° C | 59% | 1010.5 hPa | 0 mm | - | - | - |
| 1777963017 | 10.56° C | 58% | 1010.5 hPa | 0 mm | - | - | - |
| 1777962980 | 10.56° C | 58% | 1010.5 hPa | 0 mm | - | - | - |
| 1777962378 | 11.11° C | 54% | 1010.4 hPa | 0 mm | - | - | - |
| 1777962078 | 11.11° C | 53% | 1010.4 hPa | 0 mm | - | - | - |
| 1777961476 | 11.67° C | 50% | 1010.4 hPa | 0 mm | - | - | - |
| 1777961175 | 11.67° C | 50% | 1010.4 hPa | 0 mm | - | - | - |
| 1777960573 | 11.67° C | 50% | 1010.4 hPa | 0 mm | - | - | - |
| 1777960273 | 11.67° C | 51% | 1010.5 hPa | 0 mm | - | - | - |
* Rain since midnight (hover to see other rain measurements)
** Current wind speed in m/s (hover to see current wind gust speed)